Stations météo

réclame
Mon MeteoGroup
Nancy/Ochey, France (7181): Température de l'air & dewpoint: 10.07.2018 12:00:00 - 16.07.2018 12:00:00 (CEST)Nancy/Ochey, France (7181): Température de l'air 5cm: 10.07.2018 12:00:00 - 16.07.2018 12:00:00 (CEST)Nancy/Ochey, France (7181): Température de l'air -20cm & Température de l'air -100cm: 10.07.2018 12:00:00 - 16.07.2018 12:00:00 (CEST)Nancy/Ochey, France (7181): Vitesse du vent & gusts: 10.07.2018 12:00:00 - 16.07.2018 12:00:00 (CEST)Nancy/Ochey, France (7181): Direction du vent: 10.07.2018 12:00:00 - 16.07.2018 12:00:00 (CEST)Nancy/Ochey, France (7181): reduced air pressure: 10.07.2018 12:00:00 - 16.07.2018 12:00:00 (CEST)Nancy/Ochey, France (7181): visibility: 10.07.2018 12:00:00 - 16.07.2018 12:00:00 (CEST)Nancy/Ochey, France (7181): Quantités de précipitations: 10.07.2018 12:00:00 - 16.07.2018 12:00:00 (CEST)
Date & Time tt [°C] td [°C] tt 5cm [°C] tt -20cm [°C] tt -100cm [°C] ff [km/h] ff [knt] fx [km/h] fx [knt] dd ppp [hPa] vv [km] rr [mm]
16.07.2018 12:00:00 - - - - - - - - - - - - -
16.07.2018 11:00:00 24,9 12,5 33,2 20,3 17,5 7 4 16 9 ENE 1012,6 24 0,0
16.07.2018 10:00:00 23,3 12,9 27,7 20,4 17,5 3 2 8 4 NNE 1013,0 35 0,0
16.07.2018 09:00:00 20,8 13,7 22,9 20,4 17,5 3 2 10 6 SSW 1013,6 34 0,0
16.07.2018 08:00:00 17,1 13,4 15,8 20,6 17,6 4 2 9 5 SE 1014,2 24 0,0
16.07.2018 07:00:00 15,0 12,7 11,6 20,6 17,6 0 0 13 7 N 1014,6 27 0,0
16.07.2018 06:00:00 13,9 11,9 10,7 20,7 17,6 9 5 12 6 SE 1014,7 24 0,0
16.07.2018 05:00:00 14,3 11,8 11,2 20,7 17,5 10 6 13 7 SE 1014,5 27 0,0
16.07.2018 04:00:00 15,2 12,0 10,1 20,7 17,6 9 5 13 7 E 1014,9 34 0,0
16.07.2018 03:00:00 16,0 12,0 9,4 20,7 17,5 7 4 11 6 S 1014,7 34 0,0
16.07.2018 02:00:00 16,0 11,8 9,9 20,8 17,6 5 3 7 4 SSE 1014,9 37 0,0
16.07.2018 01:00:00 16,3 11,2 10,5 20,8 17,5 3 2 14 8 N 1015,1 38 0,0
16.07.2018 00:00:00 17,8 12,0 15,8 20,7 17,5 5 3 16 9 SSE 1014,8 42 0,0
15.07.2018 23:00:00 18,7 11,5 16,7 20,7 17,5 5 3 16 9 NNE 1015,2 46 0,0
15.07.2018 22:00:00 19,0 11,8 17,4 20,7 17,5 12 7 29 15 SSE 1014,6 12 0,0
15.07.2018 21:00:00 19,9 11,9 19,1 20,7 17,5 14 8 33 18 ENE 1014,7 42 0,0
15.07.2018 20:00:00 21,8 13,4 21,0 20,6 17,5 21 12 33 18 ENE 1014,0 34 0,0
15.07.2018 19:00:00 22,7 14,5 22,5 20,6 17,5 5 3 19 10 S 1013,2 47 0,0
15.07.2018 18:00:00 22,6 14,2 18,7 20,5 17,5 11 6 25 14 W 1013,3 51 0,2
15.07.2018 17:00:00 20,7 15,0 17,7 20,5 17,5 12 7 28 15 S 1014,1 11 0,4
15.07.2018 16:00:00 25,8 14,9 25,8 20,4 17,5 7 4 14 8 NNE 1013,1 34 0,0
15.07.2018 15:00:00 26,4 14,2 27,9 20,4 17,5 8 5 27 14 N 1013,1 33 0,0
15.07.2018 14:00:00 26,6 14,4 31,3 20,4 17,5 14 8 26 14 N 1013,6 33 0,0
15.07.2018 13:00:00 27,9 14,9 37,7 20,4 17,5 9 5 27 14 NNW 1013,9 37 0,0
15.07.2018 12:00:00 26,5 15,2 30,5 20,4 17,5 6 3 15 8 N 1014,6 15 0,0
15.07.2018 11:00:00 23,5 15,3 26,0 20,4 17,5 6 3 20 11 ESE 1015,2 19 0,0
15.07.2018 10:00:00 23,0 14,6 27,8 20,4 17,5 13 7 21 11 E 1015,3 24 0,0
15.07.2018 09:00:00 22,4 14,8 20,7 20,5 17,5 8 5 13 7 NNE 1015,1 28 0,0
15.07.2018 08:00:00 17,9 14,4 16,3 20,5 17,5 4 2 17 9 NW 1015,7 23 0,0
15.07.2018 07:00:00 18,2 13,5 14,5 20,5 17,5 13 7 22 12 SE 1015,4 28 0,0
15.07.2018 06:00:00 17,9 13,0 14,2 20,5 17,5 5 3 9 5 WSW 1015,8 25 0,0
15.07.2018 05:00:00 18,7 12,9 14,6 20,5 17,5 5 3 9 5 NNE 1015,8 35 0,0
15.07.2018 04:00:00 19,2 13,1 13,6 20,5 17,5 0 0 12 6 N 1015,8 26 0,0
15.07.2018 03:00:00 19,3 13,2 13,4 20,5 17,5 5 3 10 6 NE 1016,0 32 0,0
15.07.2018 02:00:00 19,7 14,1 14,1 20,5 17,5 6 3 10 5 NE 1016,0 32 0,0
15.07.2018 01:00:00 20,1 14,5 16,5 20,5 17,5 6 3 23 12 E 1016,5 18 0,0
15.07.2018 00:00:00 22,5 13,6 17,1 20,4 17,5 18 10 29 16 SW 1016,4 35 0,0
14.07.2018 23:00:00 22,1 12,4 17,1 20,4 17,5 6 3 10 6 ENE 1015,6 41 0,0
14.07.2018 22:00:00 23,9 12,5 21,8 20,3 17,5 8 4 11 6 NE 1015,4 40 0,0
14.07.2018 21:00:00 25,5 12,0 22,3 20,2 17,5 7 4 11 6 NNE 1014,8 42 0,0
14.07.2018 20:00:00 27,1 11,2 26,0 20,1 17,5 5 3 16 9 NE 1014,6 45 0,0
14.07.2018 19:00:00 28,2 9,9 29,8 20,1 17,4 5 3 13 7 S 1014,6 41 0,0
14.07.2018 18:00:00 29,2 10,3 31,9 20,0 17,4 5 3 18 10 S 1014,9 35 0,0
14.07.2018 17:00:00 28,6 11,6 30,3 20,0 17,5 8 4 21 11 ESE 1015,2 41 0,0
14.07.2018 16:00:00 28,9 11,5 31,9 19,9 17,5 11 6 22 12 E 1015,6 48 0,0
14.07.2018 15:00:00 27,7 11,3 30,4 19,8 17,4 9 5 27 15 E 1016,1 40 0,0
14.07.2018 14:00:00 26,8 12,4 30,3 19,8 17,4 12 6 21 12 N 1016,7 36 0,0
14.07.2018 13:00:00 27,7 11,3 33,5 19,8 17,5 8 5 23 13 ENE 1016,9 42 0,0
14.07.2018 12:00:00 27,4 13,0 37,4 19,8 17,4 8 4 18 10 ENE 1017,2 29 0,0
14.07.2018 11:00:00 25,8 12,6 31,4 19,9 17,5 6 3 13 7 E 1017,7 41 0,0
14.07.2018 10:00:00 24,1 13,0 29,8 19,9 17,4 5 3 12 7 NE 1018,1 20 0,0
14.07.2018 09:00:00 22,4 13,7 25,3 19,9 17,5 4 2 8 5 NNE 1018,5 36 0,0
14.07.2018 08:00:00 19,1 13,5 15,5 20,0 17,5 0 0 5 3 N 1018,6 28 0,0
14.07.2018 07:00:00 15,8 12,7 8,9 20,0 17,5 0 0 4 2 N 1018,9 23 0,0
14.07.2018 06:00:00 14,4 12,1 8,5 20,1 17,5 4 2 9 5 NNE 1019,1 23 0,0
14.07.2018 05:00:00 14,6 11,9 9,0 20,1 17,5 0 0 4 2 N 1019,2 24 0,0
14.07.2018 04:00:00 15,6 12,3 9,5 20,1 17,5 0 0 9 5 N 1018,9 25 0,0
14.07.2018 03:00:00 16,8 12,7 10,6 20,1 17,5 3 2 7 4 NW 1019,1 26 0,0
14.07.2018 02:00:00 17,0 12,7 10,9 20,0 17,5 3 2 11 6 NNW 1019,1 31 0,0
14.07.2018 01:00:00 17,7 12,8 11,4 20,0 17,5 6 4 10 5 N 1019,1 35 0,0
14.07.2018 00:00:00 19,7 13,2 14,7 20,0 17,5 7 4 11 6 N 1018,9 36 0,0
13.07.2018 23:00:00 20,6 13,1 14,4 19,9 17,5 5 3 10 5 NNE 1018,6 38 0,0
13.07.2018 22:00:00 21,5 12,6 17,8 19,8 17,5 6 4 19 11 NNW 1018,1 34 0,0
13.07.2018 21:00:00 24,2 12,8 23,3 19,8 17,5 13 7 26 14 NNE 1017,0 48 0,0
13.07.2018 20:00:00 26,3 10,4 26,3 19,7 17,5 7 4 18 10 ENE 1016,4 58 0,0
13.07.2018 19:00:00 28,1 10,3 31,2 19,6 17,5 13 7 21 12 ESE 1016,1 52 0,0
13.07.2018 18:00:00 27,1 9,9 31,7 19,5 17,5 9 5 20 11 NNE 1016,6 58 0,0
13.07.2018 17:00:00 28,2 10,8 28,0 19,5 17,5 9 5 24 13 ENE 1016,7 54 0,0
13.07.2018 16:00:00 26,7 9,5 29,6 19,4 17,5 10 5 27 15 NNE 1017,3 53 0,0
13.07.2018 15:00:00 26,7 10,8 29,2 19,3 17,5 16 9 27 15 NE 1017,5 19 0,0
13.07.2018 14:00:00 27,4 11,8 29,5 19,3 17,5 14 7 28 15 NNE 1017,7 29 0,0
13.07.2018 13:00:00 25,8 10,8 32,3 19,3 17,5 8 5 27 15 E 1018,5 13 0,0
13.07.2018 12:00:00 25,3 11,1 33,5 19,4 17,5 11 6 26 14 E 1018,8 18 0,0
13.07.2018 11:00:00 24,0 11,0 29,3 19,4 17,5 10 5 24 13 E 1018,8 52 0,0
13.07.2018 10:00:00 23,0 12,6 28,7 19,4 17,5 8 4 13 7 ENE 1018,8 27 0,0
13.07.2018 09:00:00 20,1 13,5 22,2 19,5 17,5 5 3 10 5 NNE 1019,2 20 0,0
13.07.2018 08:00:00 16,7 13,0 14,8 19,6 17,5 5 3 9 5 NNW 1019,5 14 0,0
13.07.2018 07:00:00 14,9 12,8 7,3 19,6 17,5 0 0 4 2 N 1019,9 14 0,0
13.07.2018 06:00:00 12,6 11,3 6,6 19,7 17,5 0 0 4 2 N 1020,2 14 0,0
13.07.2018 05:00:00 13,5 11,5 7,2 19,7 17,5 2 1 4 2 W 1019,9 18 0,0
13.07.2018 04:00:00 14,0 11,5 7,6 19,7 17,5 0 0 4 2 N 1019,8 19 0,0
13.07.2018 03:00:00 14,2 11,5 8,2 19,7 17,5 0 0 3 1 N 1019,7 22 0,0
13.07.2018 02:00:00 15,1 11,3 8,5 19,7 17,5 0 0 3 2 N 1019,4 28 0,0
13.07.2018 01:00:00 16,1 11,5 9,1 19,7 17,5 0 0 4 2 N 1019,3 26 0,0
13.07.2018 00:00:00 16,3 11,9 9,7 19,7 17,5 4 2 8 5 ENE 1019,1 28 0,0
12.07.2018 23:00:00 17,9 12,1 10,3 19,7 17,5 3 1 8 4 E 1018,6 31 0,0
12.07.2018 22:00:00 19,5 11,8 12,0 19,6 17,5 5 3 8 4 ENE 1018,1 16 0,0
12.07.2018 21:00:00 22,1 11,8 20,4 19,5 17,5 6 3 11 6 NE 1017,4 36 0,0
12.07.2018 20:00:00 22,4 11,8 21,8 19,5 17,5 6 4 22 12 NE 1017,3 49 0,0
12.07.2018 19:00:00 24,6 11,9 24,0 19,4 17,5 12 7 24 13 N 1016,7 38 0,0
12.07.2018 18:00:00 23,3 11,7 24,6 19,4 17,5 13 7 31 17 NE 1016,8 46 0,0
12.07.2018 17:00:00 24,0 11,7 28,5 19,3 17,5 8 4 22 12 ENE 1016,9 35 0,0
12.07.2018 16:00:00 23,5 12,5 26,7 19,3 17,5 12 7 29 16 N 1017,4 31 0,0
12.07.2018 15:00:00 22,9 11,9 25,8 19,2 17,5 13 7 23 13 N 1017,5 46 0,0
12.07.2018 14:00:00 22,4 11,8 26,6 19,3 17,5 16 9 26 14 NNE 1017,6 28 0,0
12.07.2018 13:00:00 22,1 12,1 27,5 19,3 17,5 13 7 23 13 N 1017,7 36 0,0
12.07.2018 12:00:00 22,4 12,3 29,6 19,3 17,5 13 7 23 13 N 1017,7 29 0,0
12.07.2018 11:00:00 21,1 12,5 26,6 19,3 17,5 9 5 20 11 N 1017,6 19 0,0
12.07.2018 10:00:00 19,6 12,8 25,8 19,4 17,5 5 3 16 9 N 1017,8 20 0,0
12.07.2018 09:00:00 17,1 11,4 21,0 19,5 17,5 6 4 11 6 N 1018,1 36 0,0
12.07.2018 08:00:00 14,6 10,2 12,3 19,6 17,5 5 3 8 5 NW 1018,3 20 0,0
12.07.2018 07:00:00 12,8 9,6 5,6 19,7 17,6 4 2 5 3 SW 1018,2 23 0,0
12.07.2018 06:00:00 11,2 8,4 4,5 19,7 17,5 3 1 7 4 W 1018,4 24 0,0
12.07.2018 05:00:00 10,9 8,3 4,5 19,8 17,5 2 1 5 3 W 1018,3 26 0,0
12.07.2018 04:00:00 11,5 8,4 4,8 19,8 17,5 3 1 6 4 SW 1018,5 29 0,0
12.07.2018 03:00:00 12,0 8,7 5,0 19,9 17,5 3 2 4 2 SW 1018,3 26 0,0
12.07.2018 02:00:00 12,8 8,7 5,4 19,9 17,6 2 1 3 2 WSW 1018,4 31 0,0
12.07.2018 01:00:00 13,6 9,0 6,1 19,9 17,5 0 0 2 1 N 1018,3 31 0,0
12.07.2018 00:00:00 14,2 8,8 7,0 19,9 17,5 2 1 5 3 W 1018,3 37 0,0
11.07.2018 23:00:00 15,8 8,8 9,0 19,9 17,5 4 2 9 5 E 1018,3 39 0,0
11.07.2018 22:00:00 17,7 8,8 15,6 19,9 17,5 7 4 11 6 NE 1017,6 42 0,0
11.07.2018 21:00:00 18,5 8,2 15,8 19,8 17,5 6 3 16 8 N 1017,2 47 0,0
11.07.2018 20:00:00 20,8 7,1 24,4 19,8 17,5 8 5 14 8 N 1016,7 38 0,0
11.07.2018 19:00:00 20,2 7,9 20,5 19,7 17,5 7 4 18 10 NNW 1016,8 51 0,0
11.07.2018 18:00:00 20,2 8,2 21,7 19,7 17,5 11 6 24 13 NNE 1016,8 50 0,0
11.07.2018 17:00:00 20,8 8,1 23,2 19,7 17,5 9 5 31 17 NNE 1016,8 47 0,0
11.07.2018 16:00:00 20,6 8,2 24,0 19,7 17,5 13 7 27 15 NNW 1016,8 31 0,0
11.07.2018 15:00:00 20,2 7,9 25,4 19,7 17,5 17 9 29 15 N 1017,1 32 0,0
11.07.2018 14:00:00 19,7 7,4 25,0 19,7 17,5 16 9 29 16 NW 1017,4 44 0,0
11.07.2018 13:00:00 18,4 9,2 21,2 19,7 17,5 10 6 24 13 NNW 1017,5 35 0,0
11.07.2018 12:00:00 18,4 7,5 21,2 19,7 17,5 14 8 25 13 N 1017,7 44 0,0
11.07.2018 11:00:00 18,6 9,6 17,5 19,8 17,5 14 8 24 13 N 1017,4 29 0,0
11.07.2018 10:00:00 15,6 9,9 17,3 19,8 17,5 11 6 23 12 WNW 1017,7 21 0,0
11.07.2018 09:00:00 15,0 10,8 15,7 19,9 17,5 11 6 20 11 NNW 1018,0 20 0,0
11.07.2018 08:00:00 14,3 11,6 13,5 19,9 17,5 13 7 20 11 NNW 1017,8 17 0,0
11.07.2018 07:00:00 13,3 11,7 12,5 20,0 17,5 6 4 13 7 WNW 1018,0 18 0,0
11.07.2018 06:00:00 13,2 11,4 12,5 20,0 17,5 8 4 15 8 WNW 1017,9 19 0,0
11.07.2018 05:00:00 13,2 11,4 12,5 20,1 17,5 9 5 19 11 WNW 1017,9 20 0,0
11.07.2018 04:00:00 13,2 10,9 10,5 20,1 17,5 7 4 13 7 W 1017,8 25 0,0
11.07.2018 03:00:00 12,7 10,4 11,2 20,2 17,5 9 5 16 9 WNW 1017,9 29 0,0
11.07.2018 02:00:00 13,5 10,5 9,8 20,2 17,5 13 7 18 10 WNW 1018,1 32 0,0
11.07.2018 01:00:00 13,2 9,4 9,1 20,2 17,5 6 4 15 8 WNW 1018,6 32 0,0
11.07.2018 00:00:00 12,8 8,7 7,7 20,2 17,5 10 5 17 9 NW 1018,7 38 0,0
10.07.2018 23:00:00 14,3 8,5 8,8 20,2 17,5 6 4 11 6 WNW 1018,5 46 0,0
10.07.2018 22:00:00 15,4 8,8 12,8 20,2 17,5 7 4 23 13 NW 1018,3 49 0,0
10.07.2018 21:00:00 16,7 8,4 15,8 20,2 17,5 13 7 33 18 NNW 1018,0 41 0,0
10.07.2018 20:00:00 18,2 7,9 21,0 20,2 17,5 20 11 34 18 NNW 1017,5 40 0,0
10.07.2018 19:00:00 19,4 7,8 23,6 20,1 17,5 19 10 36 19 NNW 1017,1 27 0,0
10.07.2018 18:00:00 19,8 7,5 24,9 20,1 17,5 21 12 36 19 NNW 1017,2 38 0,0
10.07.2018 17:00:00 20,9 8,2 25,1 20,1 17,5 18 10 39 21 NNW 1017,0 55 0,0
10.07.2018 16:00:00 21,2 8,5 26,6 20,0 17,5 23 12 37 20 NNW 1017,0 60 0,0
10.07.2018 15:00:00 20,5 8,8 26,6 20,0 17,5 24 13 40 22 NW 1016,9 60 0,0
10.07.2018 14:00:00 20,7 11,1 24,0 20,0 17,5 20 11 40 21 NNW 1017,2 20 0,0
10.07.2018 13:00:00 18,7 11,3 23,6 20,1 17,5 18 10 33 18 NNW 1017,8 35 0,0
10.07.2018 12:00:00 19,0 11,1 27,1 20,1 17,5 16 9 29 16 NNW 1017,9 20 0,0

tt = Température de l'air
td = dewpoint
tt 5cm = Température de l'air 5cm
tt -20cm = Température de l'air -20cm
tt -100cm = Température de l'air -100cm
ff = Vitesse du vent
fx = gusts
dd = Direction du vent
ppp = reduced air pressure
vv = visibility
rr = Quantités de précipitations

stations d'obs. à proximité